Regional Weather Roundup
Issued by NWS

Home | Current Version | Previous Version | Text Only | Print | Product List | Glossary Off
Versions: 1 2 3 4 5 6 7 8 9 10 11 12 13 14 15 16 17 18 19 20 21 22 23 24 25 26 27 28 29 30 31 32 33 34 35 36 37 38 39 40 41 42 43 44 45 46 47 48 49 50

000
ASUS43 KBIS 200402
RWRND

NORTH DAKOTA REGIONAL WEATHER ROUNDUP
NATIONAL WEATHER SERVICE BISMARCK ND
1000 PM CST SUN FEB 19 2017

NOTE: "FAIR" INDICATES FEW OR NO CLOUDS BELOW 12,000 FEET WITH NO
SIGNIFICANT WEATHER AND/OR OBSTRUCTIONS TO VISIBILITY.


NDZ001>003-009>011-017-200500-
NORTHWEST NORTH DAKOTA

CITY           SKY/WX    TMP DP  RH WIND       PRES   REMARKS
WILLISTON      FOG       33  32  96 CALM      29.57R VSB 1/4
MINOT          FAIR      33  31  92 W5        29.52F
$$

NDZ018>021-031>035-040>046-200500-
SOUTHWEST NORTH DAKOTA

CITY           SKY/WX    TMP DP  RH WIND       PRES   REMARKS
BISMARCK       FAIR      38  35  89 NE7       29.52S
DICKINSON      MOCLDY    38  34  85 NW8       29.51R
GARRISON         N/A     33  31  92 CALM      29.52R
HETTINGER ARPT PTCLDY    42  35  76 NW3       29.52R
$$

NDZ004>008-012>016-024-026-027-054-200500-
NORTHEAST NORTH DAKOTA

CITY           SKY/WX    TMP DP  RH WIND       PRES   REMARKS
GRAND FORKS    PTCLDY    42  34  73 SE13      29.61S
GRND FRKS AFB  CLOUDY    40  37  89 S9        29.61R
DEVILS LAKE    FOG       37  36  96 SE8       29.55F VSB 1/4
$$

NDZ022-023-025-028>030-036>039-047>053-200500-
SOUTHEAST NORTH DAKOTA

CITY           SKY/WX    TMP DP  RH WIND       PRES   REMARKS
FARGO          MOCLDY    52  48  86 SE20G32   29.62S
JAMESTOWN      FAIR      41  41 100 S10       29.55S FOG
$$





USA.gov is the U.S. government's official web portal to all federal, state and local government web resources and services.